Home > Weather > Kemi > Past weeks

Flag for Finland Weather for the Past 2 Weeks in Kemi, Finland

Now
55 °F

Sunny.


Feels Like: 55 °F
Forecast: 33 / 45 °F
Wind: 2 mph from North

Location: Kemi Airport

Current Time: May 1, 2016 at 6:54:05 PM

Latest Report: May 1, 2016 at 6:20 PM


Visibility: 10 mi

Pressure: 30.24 "Hg

Humidity: 47%

Dew Point: 36 °F

Location of KemiLocation

Historic Weather in Kemi — Graph

°F

Kemi Temperature Yesterday

Maximum temperature yesterday: 57 °F (at 3:50 PM)
Minimum temperature yesterday: 32 °F (at 4:20 AM)
Average temperature yesterday: 47 °F

High & Low Weather Summary for the Past Weeks

 TemperatureHumidityPressure
High61 °F (Apr 29, 10:50 AM)100% (Apr 16, 9:20 PM)30.42 "Hg (Apr 16, 9:20 PM)
Low23 °F (Apr 23, 5:20 AM)36% (Apr 24, 5:50 PM)29.39 "Hg (Apr 19, 2:20 AM)
Average39 °F80%29.87 "Hg
* Reported Apr 16 5:20 PM — May 1 5:20 PM, Kemi, Weather by CustomWeather, © 2016

Note: Actual official high and low records may vary slightly from our data, if they occured in-between our weather recording intervals... More about our weather records

Advertising

Kemi Weather History for the Previous 24 Hours

Scroll right to see more
 ConditionsComfort  
Time TempWeatherWind HumidityBarometerVisibility
5:20 PM
Sun, May 1
52 °FSunny.3 mph50%30.24 "Hg10 mi
4:50 PM52 °FSunny.3 mph50%30.24 "Hg10 mi
4:20 PM50 °FPassing clouds.6 mph54%30.27 "HgN/A
3:50 PM50 °FPassing clouds.6 mph54%30.27 "HgN/A
3:20 PM48 °FPassing clouds.6 mph58%30.27 "HgN/A
2:50 PM48 °FPassing clouds.6 mph58%30.27 "HgN/A
2:20 PM48 °FPassing clouds.9 mph62%30.27 "HgN/A
1:50 PM48 °FPassing clouds.9 mph62%30.27 "HgN/A
1:20 PM50 °FSunny.9 mph58%30.27 "Hg10 mi
12:50 PM50 °FPassing clouds.12 mph58%30.27 "HgN/A
12:20 PM48 °FSunny.12 mph62%30.27 "Hg10 mi
11:50 AM48 °FPassing clouds.9 mph66%30.27 "HgN/A
11:20 AM52 °FPassing clouds.9 mph58%30.27 "HgN/A
10:50 AM54 °FPassing clouds.10 mph47%30.27 "HgN/A
9:50 AM54 °FPassing clouds.8 mph41%30.27 "HgN/A
9:20 AM54 °FPassing clouds.7 mph41%30.27 "HgN/A
8:50 AM54 °FPassing clouds.7 mph44%30.27 "HgN/A
8:20 AM50 °FPassing clouds.5 mph50%30.27 "HgN/A
7:20 AM43 °FSunny.5 mph76%30.27 "Hg10 mi
6:50 AM41 °FSunny.6 mph81%30.27 "Hg10 mi
6:20 AM39 °FSunny.6 mph87%30.27 "Hg10 mi
5:20 AM37 °FClear.6 mph87%30.27 "Hg10 mi
4:50 AM39 °FClear.6 mph87%30.30 "Hg10 mi
4:20 AM39 °FClear.7 mph81%30.30 "Hg10 mi
3:50 AM39 °FClear.7 mph81%30.30 "Hg10 mi
3:20 AM39 °FClear.7 mph81%30.30 "Hg10 mi
2:50 AM41 °FClear.7 mph76%30.30 "Hg10 mi
2:20 AM41 °FClear.8 mph76%30.30 "Hg10 mi
1:50 AM43 °FClear.8 mph71%30.30 "Hg10 mi
1:20 AM43 °FClear.7 mph71%30.30 "Hg10 mi
12:50 AM45 °FClear.8 mph66%30.33 "Hg10 mi
12:20 AM46 °FClear.8 mph62%30.33 "Hg10 mi
11:50 PM
Sat, Apr 30
48 °FClear.6 mph62%30.33 "Hg10 mi
11:20 PM48 °FClear.6 mph62%30.33 "Hg10 mi
10:50 PM48 °FSunny.6 mph58%30.33 "Hg10 mi
10:20 PM50 °FSunny.6 mph54%30.33 "Hg10 mi
9:50 PM50 °FSunny.7 mph54%30.33 "Hg10 mi
9:20 PM52 °FSunny.7 mph47%30.36 "Hg10 mi
8:50 PM54 °FSunny.7 mph44%30.36 "Hg10 mi
8:20 PM55 °FSunny.8 mph44%30.36 "Hg10 mi
7:50 PM55 °FPassing clouds.9 mph44%30.36 "HgN/A
7:20 PM57 °FSunny.9 mph39%30.36 "Hg10 mi
6:50 PM57 °FSunny.8 mph39%30.36 "Hg10 mi
6:20 PM57 °FSunny.9 mph39%30.36 "Hg10 mi
Weather by CustomWeather, © 2016

See weather overviewHow to use our weather pages